CAPE
nan nan nan nan nan nan nan nan nan nan nan nan nan nan nan nan nan nan nan nan nan nan nan nan nan nan nan nan nan nan nan nan nan nan nan nan nan nan nan nan nan 0 0 1 1 2 3 4 4 5 6 7 10 10 14 18 18 20 23 25 25 28 29 31 31 31 32 31 30 30 28 28 27 27 27 30 34 34 36 37 37 39 40 45 45 53
nan nan nan nan nan nan nan nan nan nan nan nan nan nan nan nan nan nan nan nan nan nan nan nan nan nan nan nan nan nan nan nan nan nan nan nan nan nan nan nan nan 0 0 0 0 1 2 3 3 3 4 5 7 7 9 12 12 16 17 20 20 22 26 29 29 29 30 27 26 26 25 23 24 24 28 34 37 37 39 38 38 41 42 48 48 58
nan nan nan nan nan nan nan nan nan nan nan nan nan nan nan nan nan nan nan nan nan nan nan nan nan nan nan nan nan nan nan nan nan nan nan nan nan nan nan nan nan nan 0 0 0 0 1 1 1 2 3 4 5 5 6 8 8 10 12 14 14 15 19 20 20 22 22 22 21 21 20 22 23 23 31 36 37 37 39 38 38 40 43 50 50 61
nan nan nan nan nan nan nan nan nan nan nan nan nan nan nan nan nan nan nan nan nan nan nan nan nan nan nan nan nan nan nan nan nan nan nan nan nan nan nan nan nan nan nan nan nan 0 0 1 1 2 2 3 4 4 5 6 6 6 7 9 9 10 12 13 13 14 14 15 16 16 17 21 26 26 33 36 39 39 39 40 40 42 48 54 54 61
nan nan nan nan nan nan nan nan nan nan nan nan nan nan nan nan nan nan nan nan nan nan nan nan nan nan nan nan nan nan nan nan nan nan nan nan nan nan nan nan nan nan nan nan nan 0 0 0 0 1 2 2 3 3 4 5 5 5 6 7 7 7 7 7 7 7 8 12 14 14 18 23 27 27 32 36 40 40 42 43 43 42 49 57 57 62
nan nan nan nan nan nan nan nan nan nan nan nan nan nan nan nan nan nan nan nan nan nan nan nan nan nan nan nan nan nan nan nan nan nan nan nan nan nan nan nan nan nan nan nan nan nan 0 0 0 1 2 3 3 3 4 5 5 5 5 5 5 4 4 4 4 4 6 10 15 15 19 22 26 26 29 35 41 41 43 46 46 47 48 57 57 62
nan nan nan nan nan nan nan nan nan nan nan nan nan nan nan nan nan nan nan nan nan nan nan nan nan nan nan nan nan nan nan nan nan nan nan nan nan nan nan nan nan nan nan nan nan nan 0 1 1 2 2 3 3 3 3 4 4 4 4 3 3 2 2 2 2 4 7 11 15 15 19 21 24 24 26 32 38 38 45 48 48 50 48 54 54 61
nan nan nan nan nan nan nan nan nan nan nan nan nan nan nan nan nan nan nan nan nan nan nan nan nan nan nan nan nan nan nan nan nan nan nan nan nan nan nan nan nan nan nan nan nan nan 0 0 0 0 1 1 1 1 2 1 1 0 0 0 0 0 0 2 2 6 12 16 19 19 21 22 24 24 26 29 32 32 41 47 47 55 55 54 54 56
nan nan nan nan nan nan nan nan nan nan nan nan nan nan nan nan nan nan nan nan nan nan nan nan nan nan nan nan nan nan nan nan nan nan nan nan nan nan nan nan nan nan nan nan nan nan nan nan nan nan 0 0 0 0 0 nan nan nan nan nan nan 0 1 5 5 11 16 20 24 24 24 25 27 27 28 31 33 33 36 42 42 49 55 56 56 57
nan nan nan nan nan nan nan nan nan nan nan nan nan nan nan nan nan nan nan nan nan nan nan nan nan nan nan nan nan nan nan nan nan nan nan nan nan nan nan nan nan nan nan nan nan nan nan nan nan nan nan nan nan nan nan nan nan nan nan nan nan 0 4 8 8 14 17 23 27 27 29 30 30 30 31 31 32 32 33 37 37 42 48 54 54 58
nan nan nan nan nan nan nan nan nan nan nan nan nan nan nan nan nan nan nan nan nan nan nan nan nan nan nan nan nan nan nan nan nan nan nan nan nan nan nan nan nan nan nan nan nan nan nan nan nan nan nan nan nan nan nan nan nan nan nan 0 0 2 7 12 12 16 20 23 27 27 31 32 33 33 33 33 32 32 32 32 32 34 40 48 48 57
nan nan nan nan nan nan nan nan nan nan nan nan nan nan nan nan nan nan nan nan nan nan nan nan nan nan nan nan nan nan nan nan nan nan nan nan nan nan nan nan nan nan nan nan nan nan nan nan nan nan nan nan nan nan nan nan nan nan nan 1 1 6 11 15 15 18 21 25 26 26 28 31 32 32 32 31 31 31 30 31 31 34 37 45 45 54
nan nan nan nan nan nan nan nan nan nan nan nan nan nan nan nan nan nan nan nan nan nan nan nan nan nan nan nan nan nan nan nan nan nan nan nan nan nan nan nan nan nan nan nan nan nan nan nan nan nan nan nan nan nan nan nan nan nan 1 5 5 10 13 16 16 19 23 24 25 25 27 27 28 28 29 30 32 32 32 35 35 36 39 45 45 50
nan nan nan nan nan nan nan nan nan nan nan nan nan nan nan nan nan nan nan nan nan nan nan nan nan nan nan nan nan nan nan nan nan nan nan nan nan nan nan nan nan nan nan nan nan nan nan nan nan nan nan nan nan nan nan nan nan 1 4 8 8 11 15 17 17 19 23 24 25 25 25 25 24 24 26 28 31 31 33 35 35 36 39 40 40 46
nan nan nan nan nan nan nan nan nan nan nan nan nan nan nan nan nan nan nan nan nan nan nan nan nan nan nan nan nan nan nan nan nan nan nan nan nan nan nan nan nan nan nan nan nan nan nan nan nan nan nan nan nan nan nan nan nan 4 6 10 10 12 14 16 16 19 19 23 23 23 25 24 23 23 25 27 29 29 32 33 33 34 34 35 35 37
nan nan nan nan nan nan nan nan nan nan nan nan nan nan nan nan nan nan nan nan nan nan nan nan nan nan nan nan nan nan nan nan nan nan nan nan nan nan nan nan nan nan nan nan nan nan nan nan nan nan nan nan nan nan nan 1 1 5 7 9 9 12 13 14 14 15 16 17 20 20 23 23 24 24 23 26 27 27 29 29 29 29 29 29 29 31
nan nan nan nan nan nan nan nan nan nan nan nan nan nan nan nan nan nan nan nan nan nan nan nan nan nan nan nan nan nan nan nan nan nan nan nan nan nan nan nan nan nan nan nan nan nan nan nan nan nan nan nan nan nan 0 2 2 4 7 9 9 9 9 9 9 9 11 14 17 17 22 23 23 23 23 26 25 25 25 26 26 27 26 27 27 27
nan nan nan nan nan nan nan nan nan nan nan nan nan nan nan nan nan nan nan nan nan nan nan nan nan nan nan nan nan nan nan nan nan nan nan nan nan nan nan nan nan nan nan nan nan nan nan nan nan nan nan nan 0 0 0 2 2 5 6 7 7 6 5 5 5 5 8 12 15 15 20 24 24 24 25 25 26 26 25 26 26 25 27 26 26 26
nan nan nan nan nan nan nan nan nan nan nan nan nan nan nan nan nan nan nan nan nan nan nan nan nan nan nan nan nan nan nan nan nan nan nan nan nan nan nan nan nan nan nan nan nan nan nan nan nan nan nan nan nan nan 0 3 3 5 6 5 5 4 3 3 3 5 7 12 15 15 19 23 25 25 25 25 26 26 28 28 28 29 29 28 28 28
nan nan nan nan nan nan nan nan nan nan nan nan nan nan nan nan nan nan nan nan nan nan nan nan nan nan nan nan nan nan nan nan nan nan nan nan nan nan nan nan nan nan nan nan nan nan nan nan nan nan nan nan nan nan 1 2 2 4 5 4 4 2 2 4 4 6 9 13 15 15 18 20 22 22 22 24 25 25 28 29 29 30 29 31 31 29
nan nan nan nan nan nan nan nan nan nan nan nan nan nan nan nan nan nan nan nan nan 0 1 nan nan nan nan nan nan nan nan nan nan nan nan nan nan nan nan nan nan nan nan nan nan nan nan nan nan nan nan nan 0 0 0 2 2 3 3 2 2 2 3 5 5 8 11 14 16 16 16 17 19 19 20 23 25 25 28 30 30 31 32 33 33 33
nan nan nan nan nan nan nan nan nan nan nan nan nan nan nan 1 1 1 1 2 2 3 3 2 2 0 0 nan nan nan nan nan nan nan nan nan nan nan nan nan nan nan nan nan nan nan nan nan nan nan nan 0 0 0 0 1 1 1 1 1 1 2 4 6 6 9 13 16 17 17 18 20 20 20 21 23 25 25 28 30 30 30 32 32 32 34
nan nan nan nan nan nan nan nan nan nan nan nan nan nan nan nan 2 2 3 3 3 4 4 2 2 0 nan nan nan nan nan nan nan nan nan nan nan nan nan nan nan nan nan nan nan nan nan nan nan nan nan 1 0 0 0 0 0 0 1 1 1 3 5 7 7 10 14 17 18 18 20 20 22 22 23 23 24 24 26 27 27 30 31 31 31 33
nan nan nan nan nan nan nan nan nan nan nan nan nan nan nan nan nan nan 1 2 2 3 2 0 0 nan nan nan nan nan nan nan nan nan nan nan nan nan nan nan nan nan nan nan nan nan nan nan nan nan nan nan 0 0 0 0 0 0 1 2 2 4 6 8 8 12 14 16 19 19 21 22 23 23 23 22 23 23 26 27 27 26 28 29 29 30
nan nan nan nan nan nan nan nan 1 1 nan nan nan nan nan 0 4 4 3 0 0 0 nan nan nan nan nan nan nan nan nan nan nan nan nan nan nan nan nan nan nan nan nan nan nan nan nan nan nan nan nan nan 0 0 1 1 1 1 2 3 3 4 6 9 9 12 13 16 19 19 21 22 25 25 25 25 24 24 24 25 25 25 26 25 25 27
nan nan nan nan nan 4 6 5 4 4 1 nan nan nan nan nan nan nan nan nan nan nan nan nan nan nan nan nan nan nan nan nan nan nan nan nan nan nan nan nan nan nan nan nan nan nan nan nan nan nan nan nan nan nan 1 2 2 3 3 4 4 5 7 9 9 12 14 16 18 18 21 23 24 24 25 25 24 24 25 24 24 25 26 24 24 24
0 1 2 2 2 3 4 4 5 5 8 5 2 2 nan nan nan nan nan nan nan nan nan nan nan nan nan nan nan nan nan nan nan nan nan nan nan nan nan nan nan nan nan nan nan nan nan nan nan nan nan nan nan nan nan 3 3 4 5 5 5 5 7 8 8 12 13 15 18 18 20 22 24 24 25 25 24 24 24 24 24 23 24 24 24 23
nan nan 0 1 1 1 2 3 4 4 6 7 13 13 0 nan nan nan nan nan nan nan nan nan nan nan nan nan nan nan nan nan nan nan nan nan nan nan nan nan nan nan nan nan nan nan 0 nan nan nan nan nan nan nan nan 2 2 5 6 6 6 6 7 9 9 11 13 14 16 16 18 20 21 21 22 22 23 23 23 23 23 24 23 15 15 3
nan nan nan 0 0 1 2 2 3 3 4 5 7 7 nan nan nan nan nan nan nan nan nan 0 0 nan nan nan nan nan nan nan nan nan nan nan nan nan nan nan nan nan nan nan nan nan nan nan nan nan nan nan nan nan nan 0 0 3 5 6 6 7 7 8 8 9 12 13 14 14 16 17 19 19 18 19 21 21 21 23 23 24 17 8 8 2
nan nan nan nan nan nan nan nan nan nan 3 3 3 3 nan nan nan nan nan nan nan nan nan 0 0 1 0 nan nan nan nan nan nan nan nan nan nan nan nan nan nan nan nan nan nan nan nan nan nan nan nan nan nan nan nan nan nan nan nan 3 3 4 6 8 8 8 9 10 12 12 13 15 16 16 17 17 18 18 20 21 21 17 5 1 1 0
nan nan nan nan nan nan nan nan nan nan 1 3 2 2 nan nan nan nan nan nan nan nan nan nan nan 0 0 nan nan nan nan nan nan nan nan nan nan nan nan nan nan nan nan nan nan nan nan nan nan nan nan nan nan nan nan nan nan nan nan nan nan nan 3 7 7 7 8 9 9 9 10 12 14 14 15 14 16 16 17 20 20 16 2 0 0 0
nan nan nan nan nan nan nan nan nan nan nan nan nan nan nan nan nan nan nan nan nan nan nan nan nan nan 0 0 nan nan nan nan nan nan nan nan nan nan nan nan nan nan nan 0 0 nan nan nan nan nan nan nan nan nan nan nan nan nan nan nan nan nan nan 1 1 2 2 7 9 9 9 8 9 9 11 11 13 13 15 17 17 17 6 1 1 1
nan nan nan nan nan nan nan nan nan nan nan nan nan nan nan nan nan nan nan nan nan nan nan nan nan nan nan nan nan nan nan nan nan nan 2 nan nan nan nan nan nan nan nan nan nan nan nan nan nan nan nan nan nan nan nan nan nan nan nan nan nan nan nan nan nan nan nan 0 1 1 7 6 9 9 9 10 12 12 15 18 18 20 20 3 3 4
nan nan nan nan nan nan nan nan nan nan nan nan nan nan nan nan nan nan nan nan nan nan nan nan nan nan nan nan nan nan nan nan nan nan 0 nan nan nan nan nan nan nan nan nan nan nan nan nan nan nan nan nan nan nan nan nan nan nan nan nan nan nan nan nan nan nan nan nan nan nan nan nan 3 3 4 8 10 10 15 20 20 22 27 16 16 6
nan nan nan nan nan nan nan nan nan nan nan nan nan nan nan nan nan nan nan nan nan nan nan nan nan nan nan nan nan nan nan nan nan nan nan nan nan nan nan nan nan nan nan nan nan nan nan nan nan nan nan nan nan nan nan nan nan nan nan nan nan nan nan nan nan nan nan nan nan nan nan nan nan nan nan 4 12 12 18 20 20 23 26 29 29 19
nan nan nan nan nan nan nan nan nan nan nan nan nan nan nan nan nan nan nan nan nan nan nan nan nan nan nan nan nan nan nan nan nan nan nan nan nan nan nan nan nan nan nan nan nan nan nan nan nan nan 0 nan nan nan nan nan nan nan nan nan nan nan nan nan nan nan nan nan nan nan nan nan nan nan nan 8 16 16 20 20 20 20 22 25 25 27
nan nan nan nan nan nan nan nan nan nan nan nan nan nan nan nan nan nan nan nan nan nan nan nan nan nan nan nan nan nan nan nan nan nan nan nan nan nan nan nan nan nan nan nan nan nan nan nan nan nan nan nan nan nan nan nan nan nan nan nan nan nan nan nan nan nan nan nan nan nan nan nan nan nan nan 10 9 9 14 19 19 17 21 23 23 27
nan nan nan nan nan nan nan nan nan nan nan nan nan nan nan nan nan nan nan nan nan nan nan nan nan nan nan nan nan nan nan nan nan nan nan nan nan nan nan nan nan nan nan nan nan nan nan nan nan nan nan nan nan nan nan nan nan nan nan nan nan nan nan nan nan nan nan nan nan nan nan nan nan nan nan nan nan nan nan nan nan 4 15 15 15 22
nan nan nan nan nan nan nan nan nan nan nan nan nan nan nan nan nan nan nan nan nan nan nan nan nan nan nan nan nan nan nan nan nan nan nan nan nan nan nan nan nan nan nan nan nan nan nan nan nan nan nan nan nan nan nan nan nan nan nan nan nan nan nan nan nan nan nan nan nan nan nan nan nan nan nan nan nan nan nan nan nan nan 0 nan nan 6
nan nan nan nan nan nan nan nan nan nan nan nan nan nan nan nan nan nan nan nan nan nan nan nan nan nan nan nan nan nan nan nan nan nan nan nan nan nan nan nan nan nan nan nan nan nan nan nan nan nan nan nan nan nan nan nan nan nan nan nan nan nan nan nan nan nan nan nan nan nan nan nan nan nan nan nan nan nan nan nan nan nan nan nan nan nan
nan nan nan nan nan nan nan nan nan nan nan nan nan nan nan nan nan nan nan nan nan nan nan nan nan nan nan nan nan nan nan nan nan nan nan nan nan nan nan nan nan nan nan nan nan nan nan nan nan nan nan nan nan nan nan nan nan 0 3 nan nan nan nan nan nan nan nan nan nan nan nan nan nan nan nan nan nan nan nan nan nan nan nan nan nan nan
nan nan nan nan nan nan nan nan nan nan nan nan nan nan nan nan nan nan nan nan nan nan nan nan nan nan nan nan nan nan nan nan nan nan nan nan nan nan nan nan nan nan nan nan nan nan nan nan nan nan nan nan nan nan nan nan nan nan nan nan nan nan nan nan nan nan nan nan nan nan nan nan nan nan nan nan nan nan nan nan nan nan 0 nan nan nan
nan nan nan nan nan nan nan nan nan nan nan nan nan nan nan nan nan nan nan nan nan nan nan nan nan nan nan nan nan nan nan nan nan nan nan nan nan nan nan nan nan nan nan nan nan nan nan nan nan nan nan nan nan nan nan nan nan nan nan nan nan nan nan nan nan nan nan nan nan nan nan nan nan nan nan nan nan nan nan nan nan 4 4 nan nan nan
nan nan nan nan nan nan nan nan nan nan nan nan nan nan nan nan nan nan nan nan nan nan nan nan nan nan nan nan nan nan nan nan nan nan nan nan nan nan nan nan nan nan nan nan nan nan nan nan nan nan nan nan nan nan nan nan nan nan nan nan nan nan nan nan nan nan nan nan nan nan nan nan nan nan nan nan nan nan nan nan nan nan nan nan nan nan
nan nan nan nan nan nan nan nan nan nan nan nan nan nan nan nan nan nan nan nan nan nan nan nan nan nan nan nan nan nan nan nan nan nan nan nan nan nan nan nan nan nan nan nan nan nan nan nan nan nan nan nan nan nan nan nan nan nan nan nan nan nan nan nan nan nan nan nan nan nan nan nan nan nan nan nan nan nan nan nan nan nan nan nan nan nan
nan nan nan nan nan nan nan nan nan nan nan nan nan nan nan nan nan nan nan nan nan nan nan nan nan nan nan nan nan nan nan nan nan nan nan nan nan nan nan nan nan nan nan nan nan nan nan nan nan nan nan nan nan nan nan nan nan nan nan nan nan nan nan nan nan nan nan nan nan nan nan nan nan nan nan nan nan nan nan nan nan nan nan nan nan nan
nan nan nan nan nan nan nan nan nan nan nan nan nan nan nan nan nan nan nan nan nan nan nan nan nan nan nan nan nan nan nan nan nan nan nan nan nan nan nan nan nan nan nan nan nan nan nan nan nan nan nan nan nan nan nan nan nan nan nan nan nan nan nan nan nan nan nan nan nan nan nan nan nan nan nan nan nan nan nan nan nan nan nan nan nan nan
nan nan nan nan nan nan nan nan nan nan nan nan nan nan nan nan nan nan nan nan nan nan nan nan nan nan nan nan nan nan nan nan nan nan nan nan nan nan nan nan nan nan nan nan nan nan nan nan nan nan nan nan nan nan nan nan nan nan nan nan nan nan nan nan nan nan nan nan nan nan nan nan nan nan nan nan nan nan nan nan nan nan nan nan nan nan
nan nan nan nan nan nan nan nan nan nan nan nan nan nan nan nan 1 1 nan nan nan nan nan nan nan nan nan nan nan nan nan nan nan nan nan nan nan nan nan nan nan nan nan nan nan nan nan nan nan nan nan nan nan nan nan nan nan nan nan nan nan nan nan nan nan nan nan nan nan nan nan nan nan nan nan nan nan nan nan nan nan nan nan nan nan nan
nan nan nan nan nan nan nan nan nan nan nan nan nan nan nan nan nan nan nan nan nan nan nan nan nan nan nan nan nan nan nan nan nan nan nan nan nan nan nan nan nan nan nan nan nan nan nan nan nan nan nan nan nan nan nan nan nan nan nan nan nan nan nan nan nan nan nan nan nan nan nan nan nan nan nan nan nan nan nan nan nan nan nan nan nan nan
nan nan nan nan nan nan nan nan nan nan nan nan nan nan nan nan nan nan nan nan nan nan nan nan nan nan nan nan nan nan nan nan nan nan nan nan nan nan nan nan nan nan nan nan nan nan nan nan nan nan nan 4 0 0 nan nan nan nan nan nan nan nan nan nan nan nan nan nan nan nan nan nan nan nan nan nan nan nan nan nan nan nan nan nan nan nan
CIN
nan nan nan nan nan nan nan nan nan nan nan nan nan nan nan nan nan nan nan nan nan nan nan nan nan nan nan nan nan nan nan nan nan nan nan nan nan nan nan nan nan -0 -0 -0 -0 -0 -0 -0 -0 -0 -0 -0 -0 -0 -0 -0 -0 -0 -0 -0 -0 -0 -0 -0 -0 -0 -0 -0 -0 -0 -0 -0 -0 -0 -0 -0 -0 -0 -0 -0 -0 -0 -0 -0 -0 -0
nan nan nan nan nan nan nan nan nan nan nan nan nan nan nan nan nan nan nan nan nan nan nan nan nan nan nan nan nan nan nan nan nan nan nan nan nan nan nan nan nan -0 -0 -0 -0 -0 -0 -0 -0 -0 -0 -0 -0 -0 -0 -0 -0 -0 -0 -0 -0 -0 -0 -0 -0 -0 -0 -0 -0 -0 -0 -0 -0 -0 -0 -0 -0 -0 -0 -0 -0 -0 -0 -0 -0 -0
nan nan nan nan nan nan nan nan nan nan nan nan nan nan nan nan nan nan nan nan nan nan nan nan nan nan nan nan nan nan nan nan nan nan nan nan nan nan nan nan nan nan -0 -0 -0 -0 -0 -0 -0 -0 -0 -0 -0 -0 -0 -0 -0 -0 -0 -0 -0 -0 -0 -0 -0 -0 -0 -0 -0 -0 -0 -0 -0 -0 -0 -0 -0 -0 -0 -0 -0 -0 -0 -0 -0 -0
nan nan nan nan nan nan nan nan nan nan nan nan nan nan nan nan nan nan nan nan nan nan nan nan nan nan nan nan nan nan nan nan nan nan nan nan nan nan nan nan nan nan nan nan nan -0 -0 -0 -0 -0 -0 -0 -0 -0 -0 -0 -0 -0 -0 -0 -0 -0 -0 -0 -0 -0 -0 -0 -0 -0 -0 -0 -0 -0 -0 -0 -0 -0 -0 -0 -0 -0 -0 -0 -0 -0
nan nan nan nan nan nan nan nan nan nan nan nan nan nan nan nan nan nan nan nan nan nan nan nan nan nan nan nan nan nan nan nan nan nan nan nan nan nan nan nan nan nan nan nan nan -0 -0 -0 -0 -0 -0 -0 -0 -0 -0 -0 -0 -0 -0 -0 -0 -0 -0 -0 -0 -0 -0 -0 -0 -0 -0 -0 -0 -0 -0 -0 -0 -0 -0 -0 -0 -0 -0 -0 -0 -0
nan nan nan nan nan nan nan nan nan nan nan nan nan nan nan nan nan nan nan nan nan nan nan nan nan nan nan nan nan nan nan nan nan nan nan nan nan nan nan nan nan nan nan nan nan nan -0 -0 -0 -0 -0 -0 -0 -0 -0 -0 -0 -0 -0 -0 -0 -0 -0 -0 -0 -0 -0 -0 -0 -0 -0 -0 -0 -0 -0 -0 -0 -0 -0 -0 -0 -0 -0 -0 -0 -0
nan nan nan nan nan nan nan nan nan nan nan nan nan nan nan nan nan nan nan nan nan nan nan nan nan nan nan nan nan nan nan nan nan nan nan nan nan nan nan nan nan nan nan nan nan nan -0 -0 -0 -0 -0 -0 -0 -0 -0 -0 -0 -0 -0 -0 -0 -0 -0 -0 -0 -0 -0 -0 -0 -0 -0 -0 -0 -0 -0 -0 -0 -0 -0 -0 -0 -0 -0 -0 -0 -0
nan nan nan nan nan nan nan nan nan nan nan nan nan nan nan nan nan nan nan nan nan nan nan nan nan nan nan nan nan nan nan nan nan nan nan nan nan nan nan nan nan nan nan nan nan nan -0 -0 -0 -0 -0 -0 -0 -0 -0 -0 -0 -0 -0 -0 -0 -0 -0 -0 -0 -0 -0 -0 -0 -0 -0 -0 -0 -0 -0 -0 -0 -0 -0 -0 -0 -0 -0 -0 -0 -0
nan nan nan nan nan nan nan nan nan nan nan nan nan nan nan nan nan nan nan nan nan nan nan nan nan nan nan nan nan nan nan nan nan nan nan nan nan nan nan nan nan nan nan nan nan nan nan nan nan nan -0 -0 -0 -0 -0 nan nan nan nan nan nan -0 -0 -0 -0 -0 -0 -0 -0 -0 -0 -0 -0 -0 -0 -0 -0 -0 -0 -0 -0 -0 -0 -0 -0 -0
nan nan nan nan nan nan nan nan nan nan nan nan nan nan nan nan nan nan nan nan nan nan nan nan nan nan nan nan nan nan nan nan nan nan nan nan nan nan nan nan nan nan nan nan nan nan nan nan nan nan nan nan nan nan nan nan nan nan nan nan nan -0 -0 -0 -0 -0 -0 -0 -0 -0 -0 -0 -0 -0 -0 -0 -0 -0 -0 -0 -0 -0 -0 -0 -0 -0
nan nan nan nan nan nan nan nan nan nan nan nan nan nan nan nan nan nan nan nan nan nan nan nan nan nan nan nan nan nan nan nan nan nan nan nan nan nan nan nan nan nan nan nan nan nan nan nan nan nan nan nan nan nan nan nan nan nan nan -0 -0 -0 -0 -0 -0 -0 -0 -0 -0 -0 -0 -0 -0 -0 -0 -0 -0 -0 -0 -0 -0 -0 -0 -0 -0 -0
nan nan nan nan nan nan nan nan nan nan nan nan nan nan nan nan nan nan nan nan nan nan nan nan nan nan nan nan nan nan nan nan nan nan nan nan nan nan nan nan nan nan nan nan nan nan nan nan nan nan nan nan nan nan nan nan nan nan nan -0 -0 -0 -0 -0 -0 -0 -0 -0 -0 -0 -0 -0 -0 -0 -0 -0 -0 -0 -0 -0 -0 -0 -0 -0 -0 -0
nan nan nan nan nan nan nan nan nan nan nan nan nan nan nan nan nan nan nan nan nan nan nan nan nan nan nan nan nan nan nan nan nan nan nan nan nan nan nan nan nan nan nan nan nan nan nan nan nan nan nan nan nan nan nan nan nan nan -0 -0 -0 -0 -0 -0 -0 -0 -0 -0 -0 -0 -0 -0 -0 -0 -0 -0 -0 -0 -0 -0 -0 -0 -0 -0 -0 -0
nan nan nan nan nan nan nan nan nan nan nan nan nan nan nan nan nan nan nan nan nan nan nan nan nan nan nan nan nan nan nan nan nan nan nan nan nan nan nan nan nan nan nan nan nan nan nan nan nan nan nan nan nan nan nan nan nan -0 -0 -0 -0 -0 -0 -0 -0 -0 -0 -0 -0 -0 -0 -0 -0 -0 -0 -0 -0 -0 -0 -0 -0 -0 -0 -0 -0 -0
nan nan nan nan nan nan nan nan nan nan nan nan nan nan nan nan nan nan nan nan nan nan nan nan nan nan nan nan nan nan nan nan nan nan nan nan nan nan nan nan nan nan nan nan nan nan nan nan nan nan nan nan nan nan nan nan nan -0 -0 -0 -0 -0 -0 -0 -0 -0 -0 -0 -0 -0 -0 -0 -0 -0 -0 -0 -0 -0 -0 -0 -0 -0 -0 -0 -0 -0
nan nan nan nan nan nan nan nan nan nan nan nan nan nan nan nan nan nan nan nan nan nan nan nan nan nan nan nan nan nan nan nan nan nan nan nan nan nan nan nan nan nan nan nan nan nan nan nan nan nan nan nan nan nan nan -0 -0 -0 -0 -0 -0 -0 -0 -0 -0 -0 -0 -0 -0 -0 -0 -0 -0 -0 -0 -0 -0 -0 -0 -0 -0 -0 -0 -0 -0 -0
nan nan nan nan nan nan nan nan nan nan nan nan nan nan nan nan nan nan nan nan nan nan nan nan nan nan nan nan nan nan nan nan nan nan nan nan nan nan nan nan nan nan nan nan nan nan nan nan nan nan nan nan nan nan -0 -0 -0 -0 -0 -0 -0 -0 -0 -0 -0 -0 -0 -0 -0 -0 -0 -0 -0 -0 -0 -0 -0 -0 -0 -0 -0 -0 -0 -0 -0 -0
nan nan nan nan nan nan nan nan nan nan nan nan nan nan nan nan nan nan nan nan nan nan nan nan nan nan nan nan nan nan nan nan nan nan nan nan nan nan nan nan nan nan nan nan nan nan nan nan nan nan nan nan -0 -0 -0 -0 -0 -0 -0 -0 -0 -0 -0 -0 -0 -0 -0 -0 -0 -0 -0 -0 -0 -0 -0 -0 -0 -0 -0 -0 -0 -0 -0 -0 -0 -0
nan nan nan nan nan nan nan nan nan nan nan nan nan nan nan nan nan nan nan nan nan nan nan nan nan nan nan nan nan nan nan nan nan nan nan nan nan nan nan nan nan nan nan nan nan nan nan nan nan nan nan nan nan nan -0 -0 -0 -0 -0 -0 -0 -0 -0 -0 -0 -0 -0 -0 -0 -0 -0 -0 -0 -0 -0 -0 -0 -0 -0 -0 -0 -0 -0 -0 -0 -0
nan nan nan nan nan nan nan nan nan nan nan nan nan nan nan nan nan nan nan nan nan nan nan nan nan nan nan nan nan nan nan nan nan nan nan nan nan nan nan nan nan nan nan nan nan nan nan nan nan nan nan nan nan nan -0 -0 -0 -0 -0 -0 -0 -0 -0 -0 -0 -0 -0 -0 -0 -0 -0 -0 -0 -0 -0 -0 -0 -0 -0 -0 -0 -0 -0 -0 -0 -0
nan nan nan nan nan nan nan nan nan nan nan nan nan nan nan nan nan nan nan nan nan -12 -9 nan nan nan nan nan nan nan nan nan nan nan nan nan nan nan nan nan nan nan nan nan nan nan nan nan nan nan nan nan -0 -0 -0 -0 -0 -0 -0 -0 -0 -0 -0 -0 -0 -0 -0 -0 -0 -0 -0 -0 -0 -0 -0 -0 -0 -0 -0 -0 -0 -0 -0 -0 -0 -0
nan nan nan nan nan nan nan nan nan nan nan nan nan nan nan -1 -3 -3 -5 -5 -5 -4 -3 -2 -2 -5 -5 nan nan nan nan nan nan nan nan nan nan nan nan nan nan nan nan nan nan nan nan nan nan nan nan -0 -0 -0 -0 -0 -0 -0 -0 -0 -0 -0 -0 -0 -0 -0 -0 -0 -0 -0 -0 -0 -0 -0 -0 -0 -0 -0 -0 -0 -0 -0 -0 -0 -0 -0
nan nan nan nan nan nan nan nan nan nan nan nan nan nan nan nan -2 -2 -3 -3 -3 -2 -2 -5 -5 -11 nan nan nan nan nan nan nan nan nan nan nan nan nan nan nan nan nan nan nan nan nan nan nan nan nan -0 -0 -0 -0 -0 -0 -0 -0 -0 -0 -0 -0 -0 -0 -0 -0 -0 -0 -0 -0 -0 -0 -0 -0 -0 -0 -0 -0 -0 -0 -0 -0 -0 -0 -0
nan nan nan nan nan nan nan nan nan nan nan nan nan nan nan nan nan nan -15 -8 -8 -5 -6 -13 -13 nan nan nan nan nan nan nan nan nan nan nan nan nan nan nan nan nan nan nan nan nan nan nan nan nan nan nan -0 -0 -0 -0 -0 -0 -0 -0 -0 -0 -0 -0 -0 -0 -0 -0 -0 -0 -0 -0 -0 -0 -0 -0 -0 -0 -0 -0 -0 -0 -0 -0 -0 -0
nan nan nan nan nan nan nan nan -23 -23 nan nan nan nan nan -36 -15 -15 -22 -24 -24 -21 nan nan nan nan nan nan nan nan nan nan nan nan nan nan nan nan nan nan nan nan nan nan nan nan nan nan nan nan nan nan -0 -0 -0 -0 -0 -0 -0 -0 -0 -0 -0 -0 -0 -0 -0 -0 -0 -0 -0 -0 -0 -0 -0 -0 -0 -0 -0 -0 -0 -0 -0 -0 -0 -0
nan nan nan nan nan -0 -0 -0 -0 -0 -9 nan nan nan nan nan nan nan nan nan nan nan nan nan nan nan nan nan nan nan nan nan nan nan nan nan nan nan nan nan nan nan nan nan nan nan nan nan nan nan nan nan nan nan -0 -0 -0 -0 -0 -0 -0 -0 -0 -0 -0 -0 -0 -0 -0 -0 -0 -0 -0 -0 -0 -0 -0 -0 -0 -0 -0 -0 -0 -0 -0 -0
-0 -0 -0 -0 -0 -0 -0 -0 -0 -0 -0 -0 -12 -12 nan nan nan nan nan nan nan nan nan nan nan nan nan nan nan nan nan nan nan nan nan nan nan nan nan nan nan nan nan nan nan nan nan nan nan nan nan nan nan nan nan -0 -0 -0 -0 -0 -0 -0 -0 -0 -0 -0 -0 -0 -0 -0 -0 -0 -0 -0 -0 -0 -0 -0 -0 -0 -0 -0 -0 -0 -0 -0
nan nan -0 -0 -0 -0 -0 -0 -0 -0 -0 -0 -0 -0 -3 nan nan nan nan nan nan nan nan nan nan nan nan nan nan nan nan nan nan nan nan nan nan nan nan nan nan nan nan nan nan nan -0 nan nan nan nan nan nan nan nan -0 -0 -0 -0 -0 -0 -0 -0 -0 -0 -0 -0 -0 -0 -0 -0 -0 -0 -0 -0 -0 -0 -0 -0 -0 -0 -0 -0 -0 -0 -4
nan nan nan -0 -0 -0 -0 -0 -0 -0 -0 -0 -0 -0 nan nan nan nan nan nan nan nan nan -0 -0 nan nan nan nan nan nan nan nan nan nan nan nan nan nan nan nan nan nan nan nan nan nan nan nan nan nan nan nan nan nan -2 -2 -0 -0 -0 -0 -0 -0 -0 -0 -0 -0 -0 -0 -0 -0 -0 -0 -0 -0 -0 -0 -0 -0 -0 -0 -0 -0 -0 -0 -5
nan nan nan nan nan nan nan nan nan nan -0 -0 -0 -0 nan nan nan nan nan nan nan nan nan -0 -0 -0 -2 nan nan nan nan nan nan nan nan nan nan nan nan nan nan nan nan nan nan nan nan nan nan nan nan nan nan nan nan nan nan nan nan -0 -0 -0 -0 -0 -0 -0 -0 -0 -0 -0 -0 -0 -0 -0 -0 -0 -0 -0 -0 -0 -0 -0 -2 -9 -9 -9
nan nan nan nan nan nan nan nan nan nan -1 -0 -0 -0 nan nan nan nan nan nan nan nan nan nan nan -1 -1 nan nan nan nan nan nan nan nan nan nan nan nan nan nan nan nan nan nan nan nan nan nan nan nan nan nan nan nan nan nan nan nan nan nan nan -0 -0 -0 -0 -0 -0 -0 -0 -0 -0 -0 -0 -0 -0 -0 -0 -0 -0 -0 -0 -8 -12 -12 -11
nan nan nan nan nan nan nan nan nan nan nan nan nan nan nan nan nan nan nan nan nan nan nan nan nan nan -1 -0 nan nan nan nan nan nan nan nan nan nan nan nan nan nan nan -17 -17 nan nan nan nan nan nan nan nan nan nan nan nan nan nan nan nan nan nan -0 -0 -0 -0 -0 -0 -0 -0 -0 -0 -0 -0 -0 -0 -0 -0 -0 -0 -0 -1 -10 -10 -7
nan nan nan nan nan nan nan nan nan nan nan nan nan nan nan nan nan nan nan nan nan nan nan nan nan nan nan nan nan nan nan nan nan nan -0 nan nan nan nan nan nan nan nan nan nan nan nan nan nan nan nan nan nan nan nan nan nan nan nan nan nan nan nan nan nan nan nan -1 -0 -0 -0 -0 -0 -0 -0 -0 -0 -0 -0 -0 -0 -0 -0 -8 -8 -6
nan nan nan nan nan nan nan nan nan nan nan nan nan nan nan nan nan nan nan nan nan nan nan nan nan nan nan nan nan nan nan nan nan nan -0 nan nan nan nan nan nan nan nan nan nan nan nan nan nan nan nan nan nan nan nan nan nan nan nan nan nan nan nan nan nan nan nan nan nan nan nan nan -0 -0 -0 -0 -0 -0 -0 -0 -0 -0 -0 -0 -0 -3
nan nan nan nan nan nan nan nan nan nan nan nan nan nan nan nan nan nan nan nan nan nan nan nan nan nan nan nan nan nan nan nan nan nan nan nan nan nan nan nan nan nan nan nan nan nan nan nan nan nan nan nan nan nan nan nan nan nan nan nan nan nan nan nan nan nan nan nan nan nan nan nan nan nan nan -0 -0 -0 -0 -0 -0 -0 -0 -0 -0 -0
nan nan nan nan nan nan nan nan nan nan nan nan nan nan nan nan nan nan nan nan nan nan nan nan nan nan nan nan nan nan nan nan nan nan nan nan nan nan nan nan nan nan nan nan nan nan nan nan nan nan -1 nan nan nan nan nan nan nan nan nan nan nan nan nan nan nan nan nan nan nan nan nan nan nan nan -0 -0 -0 -0 -0 -0 -0 -0 -0 -0 -0
nan nan nan nan nan nan nan nan nan nan nan nan nan nan nan nan nan nan nan nan nan nan nan nan nan nan nan nan nan nan nan nan nan nan nan nan nan nan nan nan nan nan nan nan nan nan nan nan nan nan nan nan nan nan nan nan nan nan nan nan nan nan nan nan nan nan nan nan nan nan nan nan nan nan nan -0 -0 -0 -0 -0 -0 -0 -0 -0 -0 -0
nan nan nan nan nan nan nan nan nan nan nan nan nan nan nan nan nan nan nan nan nan nan nan nan nan nan nan nan nan nan nan nan nan nan nan nan nan nan nan nan nan nan nan nan nan nan nan nan nan nan nan nan nan nan nan nan nan nan nan nan nan nan nan nan nan nan nan nan nan nan nan nan nan nan nan nan nan nan nan nan nan -1 -0 -0 -0 -0
nan nan nan nan nan nan nan nan nan nan nan nan nan nan nan nan nan nan nan nan nan nan nan nan nan nan nan nan nan nan nan nan nan nan nan nan nan nan nan nan nan nan nan nan nan nan nan nan nan nan nan nan nan nan nan nan nan nan nan nan nan nan nan nan nan nan nan nan nan nan nan nan nan nan nan nan nan nan nan nan nan nan -10 nan nan -0
nan nan nan nan nan nan nan nan nan nan nan nan nan nan nan nan nan nan nan nan nan nan nan nan nan nan nan nan nan nan nan nan nan nan nan nan nan nan nan nan nan nan nan nan nan nan nan nan nan nan nan nan nan nan nan nan nan nan nan nan nan nan nan nan nan nan nan nan nan nan nan nan nan nan nan nan nan nan nan nan nan nan nan nan nan nan
nan nan nan nan nan nan nan nan nan nan nan nan nan nan nan nan nan nan nan nan nan nan nan nan nan nan nan nan nan nan nan nan nan nan nan nan nan nan nan nan nan nan nan nan nan nan nan nan nan nan nan nan nan nan nan nan nan -2 -0 nan nan nan nan nan nan nan nan nan nan nan nan nan nan nan nan nan nan nan nan nan nan nan nan nan nan nan
nan nan nan nan nan nan nan nan nan nan nan nan nan nan nan nan nan nan nan nan nan nan nan nan nan nan nan nan nan nan nan nan nan nan nan nan nan nan nan nan nan nan nan nan nan nan nan nan nan nan nan nan nan nan nan nan nan nan nan nan nan nan nan nan nan nan nan nan nan nan nan nan nan nan nan nan nan nan nan nan nan nan -6 nan nan nan
nan nan nan nan nan nan nan nan nan nan nan nan nan nan nan nan nan nan nan nan nan nan nan nan nan nan nan nan nan nan nan nan nan nan nan nan nan nan nan nan nan nan nan nan nan nan nan nan nan nan nan nan nan nan nan nan nan nan nan nan nan nan nan nan nan nan nan nan nan nan nan nan nan nan nan nan nan nan nan nan nan -0 -1 nan nan nan
nan nan nan nan nan nan nan nan nan nan nan nan nan nan nan nan nan nan nan nan nan nan nan nan nan nan nan nan nan nan nan nan nan nan nan nan nan nan nan nan nan nan nan nan nan nan nan nan nan nan nan nan nan nan nan nan nan nan nan nan nan nan nan nan nan nan nan nan nan nan nan nan nan nan nan nan nan nan nan nan nan nan nan nan nan nan
nan nan nan nan nan nan nan nan nan nan nan nan nan nan nan nan nan nan nan nan nan nan nan nan nan nan nan nan nan nan nan nan nan nan nan nan nan nan nan nan nan nan nan nan nan nan nan nan nan nan nan nan nan nan nan nan nan nan nan nan nan nan nan nan nan nan nan nan nan nan nan nan nan nan nan nan nan nan nan nan nan nan nan nan nan nan
nan nan nan nan nan nan nan nan nan nan nan nan nan nan nan nan nan nan nan nan nan nan nan nan nan nan nan nan nan nan nan nan nan nan nan nan nan nan nan nan nan nan nan nan nan nan nan nan nan nan nan nan nan nan nan nan nan nan nan nan nan nan nan nan nan nan nan nan nan nan nan nan nan nan nan nan nan nan nan nan nan nan nan nan nan nan
nan nan nan nan nan nan nan nan nan nan nan nan nan nan nan nan nan nan nan nan nan nan nan nan nan nan nan nan nan nan nan nan nan nan nan nan nan nan nan nan nan nan nan nan nan nan nan nan nan nan nan nan nan nan nan nan nan nan nan nan nan nan nan nan nan nan nan nan nan nan nan nan nan nan nan nan nan nan nan nan nan nan nan nan nan nan
nan nan nan nan nan nan nan nan nan nan nan nan nan nan nan nan nan nan nan nan nan nan nan nan nan nan nan nan nan nan nan nan nan nan nan nan nan nan nan nan nan nan nan nan nan nan nan nan nan nan nan nan nan nan nan nan nan nan nan nan nan nan nan nan nan nan nan nan nan nan nan nan nan nan nan nan nan nan nan nan nan nan nan nan nan nan
nan nan nan nan nan nan nan nan nan nan nan nan nan nan nan nan -0 -0 nan nan nan nan nan nan nan nan nan nan nan nan nan nan nan nan nan nan nan nan nan nan nan nan nan nan nan nan nan nan nan nan nan nan nan nan nan nan nan nan nan nan nan nan nan nan nan nan nan nan nan nan nan nan nan nan nan nan nan nan nan nan nan nan nan nan nan nan
nan nan nan nan nan nan nan nan nan nan nan nan nan nan nan nan nan nan nan nan nan nan nan nan nan nan nan nan nan nan nan nan nan nan nan nan nan nan nan nan nan nan nan nan nan nan nan nan nan nan nan nan nan nan nan nan nan nan nan nan nan nan nan nan nan nan nan nan nan nan nan nan nan nan nan nan nan nan nan nan nan nan nan nan nan nan
nan nan nan nan nan nan nan nan nan nan nan nan nan nan nan nan nan nan nan nan nan nan nan nan nan nan nan nan nan nan nan nan nan nan nan nan nan nan nan nan nan nan nan nan nan nan nan nan nan nan nan -12 -28 -28 nan nan nan nan nan nan nan nan nan nan nan nan nan nan nan nan nan nan nan nan nan nan nan nan nan nan nan nan nan nan nan nan
Wind_Speed
1 1 1 1 1 1 1 1 1 2 2 2 2 2 2 2 2 1 1 1 2 2 2 2 2 3 5 8 11 13 14 15 16 16 16 16 16 15 15 14 14 14 14 14 14 14 14 15 15 15 16 16 16 17 17 17 17 18 18 18 18 18 17 17 17 17 17 17 17 17 17 17 17 17 18 18 18 19 19 19 20 20 20 21 21 21
2 1 1 2 2 2 1 1 1 1 1 1 1 2 2 2 2 2 2 2 2 2 2 2 2 2 3 6 10 13 15 15 16 16 16 16 16 15 15 14 14 14 14 14 14 15 15 15 15 16 16 16 17 17 17 17 17 17 17 17 17 17 17 17 17 17 17 17 17 17 17 17 17 18 18 18 19 19 20 20 20 21 21 21 22 22
2 2 2 2 2 2 1 1 1 0 1 0 1 1 1 2 2 2 2 2 2 2 2 1 2 2 3 5 9 13 15 16 16 17 16 16 15 15 14 14 14 14 14 15 15 15 15 16 16 16 17 17 17 17 18 17 17 17 17 17 17 16 16 16 17 17 17 17 17 17 17 17 18 18 18 19 19 20 20 21 21 21 21 22 22 22
1 1 2 2 2 2 1 1 1 1 0 0 1 1 1 1 1 1 1 2 2 2 2 1 2 2 3 4 7 11 15 16 17 17 16 16 15 15 15 15 15 15 15 15 16 16 16 16 17 17 17 18 18 18 17 17 17 17 16 16 16 16 16 16 16 17 17 17 17 17 17 18 18 19 19 19 20 20 21 21 21 22 22 22 22 23
1 1 1 2 2 2 1 1 1 1 1 1 1 1 1 1 1 1 2 2 2 2 2 2 2 2 3 3 7 11 15 16 17 17 16 16 15 15 15 15 16 16 16 16 17 17 17 17 18 18 18 18 18 17 17 17 16 16 16 16 16 16 16 16 16 17 17 17 17 17 18 18 19 19 19 20 20 21 21 21 22 22 22 22 23 23
1 1 1 1 1 1 1 2 2 2 2 2 2 2 1 1 1 2 2 2 2 2 2 2 2 2 2 3 7 11 14 15 16 16 16 15 15 15 16 16 16 17 17 17 18 18 18 18 18 18 18 18 17 17 17 16 16 16 16 16 16 16 16 17 17 17 17 18 18 18 18 19 19 19 20 20 20 21 21 21 22 22 22 23 23 23
1 1 1 1 1 1 2 2 2 2 1 1 2 2 2 2 2 2 2 2 2 2 2 2 2 2 2 4 6 9 11 13 14 14 15 15 15 15 16 17 17 18 18 18 18 18 18 18 18 18 18 17 17 17 16 16 16 16 16 16 17 17 17 17 18 18 18 18 18 19 19 19 19 20 20 20 20 21 21 21 22 22 22 22 23 23
1 2 2 2 2 2 2 2 2 1 1 1 1 1 2 2 2 2 2 2 2 2 2 3 3 3 3 3 5 6 7 8 9 9 11 11 13 14 15 17 18 18 18 19 19 19 19 19 18 18 18 17 17 17 17 17 17 17 17 17 17 18 18 18 18 18 19 19 19 19 19 20 20 20 20 20 20 21 21 21 22 22 22 22 23 23
1 2 2 2 2 2 2 2 2 1 1 1 1 1 1 2 2 2 2 2 2 2 2 3 4 4 4 3 3 4 5 6 6 6 7 7 9 11 13 15 16 18 18 19 19 19 19 19 19 18 18 18 18 17 17 17 17 18 18 18 18 18 19 19 19 19 19 19 20 20 20 20 20 20 20 20 21 21 21 21 22 22 22 22 23 23
1 1 2 1 1 1 1 1 2 1 1 1 1 1 1 1 2 3 3 3 2 2 2 3 4 5 5 4 3 3 5 6 7 8 9 9 11 12 13 14 14 16 18 18 19 19 19 19 19 19 18 18 18 18 18 18 18 18 19 19 19 19 19 19 19 20 20 20 20 20 20 21 21 21 21 21 21 21 21 21 21 22 22 22 23 23
1 1 1 1 1 0 0 1 2 1 1 1 2 2 2 2 2 3 4 4 4 3 2 2 3 4 5 5 4 4 4 4 5 7 9 10 12 13 13 13 14 15 17 17 17 18 18 19 19 19 18 18 18 18 18 19 19 19 19 19 19 19 20 20 20 20 20 20 21 21 21 21 21 21 21 21 21 21 21 21 21 21 22 22 22 23
1 1 1 1 1 1 1 1 2 1 2 2 3 3 3 2 1 2 3 4 5 4 4 3 3 3 3 4 4 3 3 3 3 4 5 6 7 8 9 9 10 12 13 13 14 15 17 18 18 18 18 18 18 18 19 19 19 19 20 20 20 20 20 20 20 21 21 21 21 21 21 21 21 21 21 21 21 21 21 21 21 21 21 22 22 22
1 1 1 1 1 1 2 2 2 2 2 2 2 2 2 2 1 1 1 2 3 4 4 4 4 3 3 3 2 2 2 2 3 4 4 4 4 4 5 5 6 7 7 8 8 10 13 15 16 16 16 17 17 18 19 19 19 20 20 20 20 20 21 21 21 21 21 21 21 21 21 21 21 21 21 21 21 21 21 21 21 21 21 21 22 22
1 1 1 2 2 2 2 2 2 2 2 1 0 1 2 2 1 1 2 2 3 3 3 4 4 4 3 2 1 1 1 3 3 4 4 4 4 4 4 4 5 5 5 5 5 7 10 11 11 11 14 15 16 17 17 18 19 20 20 21 21 21 21 21 21 21 21 21 21 21 21 21 21 21 21 21 21 21 21 21 21 21 21 22 22 22
1 1 2 2 2 1 1 1 1 1 1 1 1 1 2 2 2 2 3 3 3 3 3 3 4 3 3 2 1 0 1 3 4 5 5 5 4 3 3 4 5 5 4 5 5 6 8 8 7 7 9 11 12 14 16 18 19 21 21 21 21 21 21 21 21 21 21 21 21 21 21 21 21 21 21 21 21 21 21 21 21 22 22 22 22 23
0 1 1 1 1 1 1 1 1 1 2 2 2 1 1 2 2 2 2 3 3 3 3 4 4 3 2 2 1 1 1 3 4 5 6 6 4 3 3 4 4 5 4 4 5 5 6 6 6 6 7 11 14 18 20 20 21 21 22 22 22 22 22 21 21 21 21 21 21 21 21 21 21 21 21 21 21 21 22 22 22 22 22 22 23 23
0 1 1 0 1 1 2 1 1 1 2 2 1 1 1 2 2 2 2 2 2 3 3 3 3 4 3 2 1 0 1 3 4 5 6 6 5 4 3 3 4 5 5 5 5 5 5 5 5 6 7 12 16 19 21 21 22 22 22 22 22 22 22 21 21 21 21 21 21 21 21 21 21 22 22 22 22 22 22 22 22 22 23 23 23 23
0 1 1 1 1 1 2 1 1 1 1 1 1 1 1 1 1 1 2 2 2 3 3 3 3 3 4 4 3 2 2 4 5 6 6 6 5 4 3 3 3 4 5 5 5 4 5 5 5 6 9 15 19 21 22 22 22 22 22 22 22 22 21 21 21 21 21 21 21 21 22 22 22 22 22 22 22 22 22 23 23 23 23 23 23 23
1 1 1 1 1 1 1 1 1 1 1 2 2 2 2 2 2 2 2 2 2 2 3 3 3 3 4 4 4 3 3 4 5 6 7 7 5 4 3 3 3 4 4 5 5 5 5 5 7 10 14 18 20 21 22 22 22 22 22 22 22 22 21 21 21 21 21 21 22 22 22 22 22 23 23 23 23 23 23 23 23 23 23 23 23 23
1 1 2 2 1 1 1 1 2 2 2 2 2 2 2 2 2 2 2 2 2 2 3 3 4 4 4 5 5 4 4 4 4 5 6 6 5 4 3 3 4 4 5 5 4 4 5 5 6 9 14 17 19 21 22 22 22 22 22 22 22 21 21 21 21 21 22 22 22 22 22 23 23 23 23 23 23 23 23 23 23 23 23 23 23 23
1 2 3 2 2 1 1 2 2 2 3 3 2 2 2 2 2 2 2 2 2 2 2 3 3 4 4 5 5 5 4 4 4 4 5 5 4 4 3 3 3 4 6 5 5 4 4 5 5 6 10 16 19 21 22 22 22 22 22 22 22 21 21 21 22 22 22 22 23 23 23 23 23 23 24 24 23 23 23 23 23 23 23 23 23 23
1 2 3 3 2 2 2 2 3 4 4 3 2 2 2 3 3 3 3 3 3 3 3 4 4 4 4 5 6 5 3 3 3 4 4 5 5 4 3 3 4 4 5 5 5 4 4 4 5 7 11 16 19 21 22 22 22 22 22 22 21 21 21 22 22 22 23 23 24 24 24 24 24 24 24 24 24 24 24 24 24 24 24 24 24 24
1 2 3 3 3 3 3 3 4 4 4 3 3 3 2 2 3 3 3 3 3 3 3 4 4 4 4 4 4 4 3 2 2 2 3 5 5 5 3 3 4 5 5 5 5 5 5 5 6 7 11 16 19 20 21 21 21 21 21 21 21 21 22 22 23 23 24 24 24 25 25 25 25 24 24 24 24 24 24 24 24 24 24 24 24 24
2 2 3 3 3 3 3 3 3 3 3 3 3 3 3 3 3 3 2 2 2 3 3 4 4 4 4 4 4 3 2 1 1 1 2 4 5 5 4 4 5 6 7 6 5 6 6 6 6 7 8 13 16 19 20 20 21 21 21 21 21 22 22 23 24 24 25 25 25 25 25 25 25 25 25 25 25 25 25 25 25 25 25 25 25 25
1 2 2 2 2 3 3 3 3 3 2 2 2 2 3 3 3 3 2 2 2 3 3 4 5 5 4 4 3 3 2 1 1 0 2 3 4 5 4 4 5 6 7 6 6 6 6 6 6 6 6 9 13 17 18 19 19 20 20 21 22 23 23 24 25 25 25 25 25 25 25 25 25 25 25 25 25 25 25 25 25 25 25 25 25 25
3 3 3 4 5 7 7 7 7 7 6 5 3 2 2 2 2 2 2 2 3 3 4 5 5 5 4 3 3 3 3 1 1 1 1 3 4 5 4 4 4 6 8 7 6 6 6 7 6 5 5 6 10 13 16 17 18 19 20 21 22 24 24 25 25 25 25 25 25 25 25 25 25 25 25 25 25 25 25 25 25 26 26 26 25 24
7 7 8 8 8 8 8 9 9 9 9 8 7 5 3 3 3 3 3 3 3 3 4 5 5 5 4 3 3 3 3 2 1 1 1 2 4 5 5 5 5 6 8 8 7 7 8 8 7 6 5 5 6 9 13 15 17 18 20 22 23 24 25 25 25 25 25 25 25 25 25 25 25 25 25 25 25 25 25 25 26 26 25 24 21 19
8 8 8 8 8 9 9 9 9 9 9 9 9 9 6 4 3 3 3 3 3 3 3 4 5 5 4 4 4 4 3 2 1 1 0 2 4 5 5 5 6 7 8 7 7 7 8 7 6 5 4 4 4 5 9 12 15 17 19 21 22 23 24 24 25 25 25 25 25 25 25 25 25 25 25 25 25 25 25 25 25 25 23 19 14 11
7 8 8 9 9 9 9 8 8 9 10 10 10 9 7 3 2 2 2 3 3 3 3 4 4 4 4 5 5 5 3 2 1 1 1 3 4 4 5 5 6 6 7 7 7 6 5 4 4 3 3 4 3 4 6 9 12 14 16 19 20 21 22 23 23 24 24 25 25 25 25 25 25 25 25 25 25 25 25 26 25 22 17 14 11 10
5 6 6 7 7 7 6 5 6 7 9 10 10 8 6 3 1 1 2 2 3 3 3 4 5 5 5 5 5 4 3 2 1 1 2 3 4 4 5 5 6 6 6 7 7 6 4 3 2 2 2 4 4 4 5 6 8 9 10 13 15 16 19 21 22 23 24 24 24 25 25 25 25 25 25 25 25 25 25 25 23 18 12 10 9 9
3 3 3 4 4 4 3 3 3 5 6 7 7 6 5 2 1 1 1 2 2 2 3 4 4 4 5 4 4 4 3 2 2 3 3 4 4 4 5 6 6 5 5 5 6 7 7 5 3 2 3 5 5 5 6 6 6 6 6 7 9 11 15 18 20 21 21 22 23 24 24 25 25 25 25 25 25 25 25 25 22 17 11 10 9 9
2 3 3 3 3 3 3 3 3 3 3 4 4 4 4 3 2 1 1 1 1 1 2 3 4 4 4 4 4 4 3 3 4 5 5 4 4 4 4 5 6 5 4 4 5 6 7 6 5 5 5 6 6 6 6 6 6 6 6 6 6 8 13 15 16 17 17 19 21 22 23 24 24 24 24 25 25 25 24 25 22 17 12 10 10 10
2 3 3 3 3 3 3 2 2 2 3 2 2 2 3 3 2 2 1 1 1 1 1 2 3 4 4 4 4 4 4 4 5 6 7 5 4 4 4 5 6 6 5 5 5 5 6 7 7 7 7 6 6 6 6 6 6 6 6 6 6 7 10 12 12 13 13 15 16 18 19 21 22 23 23 24 24 24 24 24 23 20 15 12 10 11
3 3 3 3 3 3 3 2 2 2 2 2 2 2 2 2 2 2 2 2 2 2 2 2 3 4 4 4 4 5 5 4 5 7 7 5 4 4 5 5 6 6 6 5 5 5 6 7 8 8 7 7 6 5 6 6 6 6 5 5 6 6 8 8 9 9 10 11 11 12 13 14 16 18 19 21 21 22 23 23 23 23 21 16 13 12
2 3 3 3 2 2 3 2 2 2 2 3 3 3 3 3 3 3 3 3 3 3 3 3 3 3 4 4 5 5 6 5 6 7 7 5 4 4 5 5 5 6 6 6 6 6 6 8 9 9 9 8 7 6 5 5 5 5 5 6 6 6 7 7 7 8 9 9 9 9 9 9 10 12 13 16 18 20 22 24 24 24 24 22 18 15
2 2 3 2 2 2 2 2 2 2 2 3 3 3 3 3 3 3 3 3 4 4 4 4 4 4 3 4 5 6 7 6 6 7 8 6 5 5 5 5 5 6 7 7 7 7 7 8 9 10 10 9 8 7 5 5 5 5 6 6 7 8 8 7 7 7 7 8 8 8 8 8 8 9 10 15 18 21 23 24 24 25 24 24 22 20
2 2 2 2 2 2 2 2 2 2 2 3 3 3 3 3 4 4 4 4 4 4 4 4 4 4 5 5 5 6 7 7 7 8 8 7 6 5 5 5 6 7 7 8 8 8 8 9 10 10 9 9 8 7 7 6 6 6 6 7 7 8 8 8 7 7 7 8 8 9 9 9 9 9 10 15 17 19 20 22 22 22 23 23 23 22
2 2 2 2 2 2 2 3 3 2 3 3 3 3 4 4 4 4 4 4 4 4 4 4 4 5 7 8 8 8 8 9 9 10 10 8 7 6 6 6 7 7 7 7 8 8 9 9 10 10 9 8 8 9 9 9 9 8 8 8 8 8 8 8 7 7 8 9 10 10 10 10 9 9 9 10 11 11 12 13 14 16 18 19 20 21
2 2 3 3 2 2 2 3 3 3 3 3 4 4 4 4 4 4 4 4 4 4 5 4 4 5 6 8 9 10 10 10 10 10 10 9 7 6 6 7 7 8 7 7 7 8 8 9 9 9 9 9 10 10 9 9 9 10 10 9 8 8 7 7 8 8 8 9 10 10 10 9 8 7 7 7 7 8 9 9 10 11 13 12 14 16
2 2 3 3 3 3 3 3 3 3 3 4 4 5 4 4 4 4 3 4 4 4 5 5 5 5 5 6 7 8 9 8 8 9 8 7 6 6 6 7 7 8 8 7 7 7 8 9 9 10 10 10 10 10 10 9 9 10 11 10 8 7 7 8 8 9 8 8 8 9 8 8 8 8 8 8 8 9 9 9 9 10 11 10 10 11
3 2 3 3 3 3 3 4 4 3 4 4 4 4 4 4 3 3 3 4 4 4 4 4 4 4 5 5 5 6 7 8 8 8 7 7 8 8 7 7 7 8 8 8 8 8 8 9 10 10 10 10 11 12 11 11 12 13 13 11 10 10 10 10 10 9 8 8 8 9 10 10 10 10 9 10 9 9 9 9 10 11 11 10 9 9
3 3 3 3 3 3 3 4 4 4 4 4 3 3 4 3 3 4 4 4 4 4 4 4 4 4 4 4 4 5 6 6 7 8 8 9 9 9 8 7 7 7 7 8 8 9 9 9 10 10 10 10 11 11 11 11 11 11 11 11 12 12 12 10 8 7 8 8 9 9 11 10 10 10 10 10 9 9 10 10 12 13 12 10 9 8
3 3 3 3 3 3 4 4 4 4 4 3 3 3 4 3 3 4 4 4 4 5 5 4 5 5 6 6 5 4 4 5 6 7 8 8 8 9 8 8 8 8 7 7 8 9 10 10 10 10 10 10 10 11 12 12 11 11 11 11 11 11 8 8 7 6 8 9 9 9 9 9 9 9 10 10 10 10 10 11 13 14 13 11 10 10
3 3 3 3 3 3 3 3 3 3 4 4 4 4 4 4 4 4 4 4 4 5 5 4 5 5 6 6 6 6 5 4 5 6 7 8 8 8 8 9 9 8 8 7 7 8 9 10 10 10 9 9 10 11 11 12 11 11 11 11 11 10 9 9 9 10 10 10 9 9 9 9 10 10 10 10 10 9 9 10 10 10 11 11 10 10
2 3 3 3 3 3 3 3 3 4 4 4 4 4 4 4 4 4 4 4 5 5 5 5 5 5 5 6 6 6 6 5 4 4 5 7 9 10 9 8 8 8 8 8 8 8 9 10 10 9 8 9 10 10 11 11 12 12 11 11 11 11 11 11 11 11 11 11 10 10 10 10 10 10 10 10 10 10 10 10 10 10 10 10 10 10
3 3 3 3 3 3 4 4 4 4 4 4 4 4 4 4 4 4 4 4 4 5 5 5 4 5 6 6 7 7 7 6 6 5 4 5 5 6 7 7 7 7 7 8 8 9 9 10 10 10 10 10 10 10 11 11 11 11 11 11 11 11 11 10 10 10 11 11 11 11 11 10 10 10 10 10 11 10 10 10 11 11 11 10 10 10
3 3 3 3 3 3 4 4 4 4 4 4 4 4 4 4 4 4 4 4 4 5 5 5 4 5 6 6 7 7 8 8 8 7 6 5 5 5 5 6 7 7 7 8 8 9 10 10 10 10 10 11 11 11 10 10 10 11 11 11 11 10 10 10 10 10 10 11 11 11 10 10 10 11 11 11 11 11 10 10 10 11 11 10 10 10
3 3 3 3 3 4 4 4 4 4 4 4 4 4 4 4 5 5 5 4 5 5 6 5 5 5 6 7 7 7 8 8 8 7 7 6 6 5 5 5 5 6 7 8 9 9 10 10 10 10 10 11 11 11 11 10 10 10 10 10 10 10 11 11 10 9 10 10 11 11 9 9 10 11 11 11 11 10 10 10 10 10 10 10 10 10
3 3 3 3 3 4 4 4 4 4 4 5 5 4 4 5 6 7 5 5 5 5 5 5 6 6 7 7 7 8 8 8 8 7 7 7 6 6 5 5 5 5 6 6 6 7 8 9 10 10 10 10 11 11 12 11 10 9 9 9 9 10 10 10 10 9 9 10 11 11 9 9 10 10 11 12 12 12 11 11 11 10 10 10 10 10
3 3 3 3 3 4 4 4 5 5 5 5 5 5 5 4 4 5 4 4 4 5 5 6 6 7 7 8 8 8 8 8 7 7 7 6 6 6 6 6 6 6 6 5 5 5 5 6 6 8 10 10 10 10 10 10 9 9 8 8 8 8 9 9 9 9 9 10 11 11 10 10 10 9 10 11 12 13 12 11 10 10 9 9 10 10
4 4 3 3 3 4 4 4 5 5 5 5 6 6 5 5 5 4 4 4 5 5 5 5 6 7 8 8 8 8 8 8 8 8 8 6 6 6 7 7 7 7 7 6 6 5 5 5 5 5 6 9 10 9 8 8 9 9 9 7 7 7 8 9 9 9 10 10 10 11 11 10 10 10 9 10 11 12 12 11 11 10 9 9 10 11
Wind_Direction
329 296 313 44 77 84 33 6 43 59 35 6 351 344 336 337 328 320 337 11 13 3 355 352 351 353 355 354 352 349 345 341 338 336 334 333 332 330 329 328 327 327 326 326 325 325 325 325 325 325 325 325 324 323 322 321 320 319 319 319 318 318 318 318 318 318 318 317 317 317 317 317 317 315 314 312 311 311 311 311 311 311 310 310 310 309
330 329 346 27 55 73 48 343 27 72 61 9 337 328 333 335 333 336 355 11 11 5 358 351 350 351 349 346 345 344 342 339 336 335 333 332 332 331 330 329 329 328 328 327 327 326 326 326 326 325 325 324 323 322 321 320 319 319 318 318 318 318 318 317 317 317 317 317 316 316 316 315 314 313 312 311 311 311 311 311 311 310 310 309 309 309
334 347 351 15 43 61 56 344 343 45 97 324 299 306 324 334 337 342 356 354 352 350 349 345 347 349 344 339 340 340 339 336 335 334 333 332 332 331 331 331 330 330 329 328 328 327 326 326 325 325 324 323 322 321 319 319 318 317 317 317 317 317 317 317 317 317 316 316 315 314 313 313 312 311 311 311 311 311 311 311 310 310 310 309 309 309
347 359 345 358 21 39 42 341 325 321 315 307 307 315 334 339 336 338 346 341 339 337 334 334 342 345 341 336 336 336 336 335 334 333 332 332 332 332 332 332 332 331 330 329 328 327 326 326 325 324 323 321 320 319 318 318 317 317 317 317 317 317 317 317 317 316 316 314 313 313 312 311 311 311 311 311 311 311 310 310 310 309 309 309 309 309
351 349 335 353 4 6 345 337 335 335 345 345 343 340 346 345 336 333 337 341 340 336 329 331 337 340 338 332 331 332 333 333 332 332 332 332 332 333 333 333 332 331 330 329 328 327 326 325 324 323 322 320 319 318 318 317 317 317 317 318 318 318 318 317 316 315 314 313 312 312 311 311 311 311 310 310 310 310 310 309 309 309 309 309 308 308
326 324 330 357 358 352 346 355 359 359 1 352 345 342 349 349 346 343 344 343 339 332 326 325 326 328 326 323 327 330 331 331 331 330 330 331 332 333 334 333 332 331 329 328 327 326 325 324 323 322 321 320 319 319 318 318 318 319 319 319 319 319 318 317 316 314 313 312 311 311 311 310 310 310 310 309 309 309 308 308 308 308 308 307 307 307
318 325 352 5 358 349 356 4 9 12 12 352 340 340 348 350 349 345 334 328 323 321 321 321 319 318 315 316 323 327 329 329 328 328 328 330 332 333 333 332 331 329 328 327 326 325 324 323 322 322 321 321 320 320 320 320 320 321 321 320 320 319 317 316 315 313 312 311 311 311 310 310 309 309 309 308 308 308 307 307 307 306 306 306 306 306
2 354 9 14 7 359 357 356 3 12 17 2 345 344 348 345 339 328 318 314 319 324 328 326 324 320 316 314 319 324 325 325 324 324 326 329 331 332 332 330 329 327 326 325 324 324 323 323 323 322 322 322 321 321 322 322 322 322 322 321 319 318 316 315 314 312 312 311 311 310 310 309 309 308 308 307 307 307 306 306 306 305 305 305 305 305
43 20 13 19 19 12 358 341 336 347 15 35 43 24 359 343 334 326 326 327 329 333 335 331 326 322 318 317 318 319 318 318 319 322 325 330 332 333 331 329 327 325 324 323 323 323 323 323 323 322 322 322 322 323 323 323 323 322 321 320 318 316 315 313 312 312 311 311 311 310 310 309 308 308 307 307 307 306 306 305 305 305 305 304 304 304
41 35 12 4 16 37 30 314 310 324 14 51 82 94 80 10 346 337 336 332 330 331 332 330 324 321 319 321 320 317 314 316 320 324 329 331 330 329 327 325 324 323 322 322 322 322 322 322 322 322 322 322 322 323 323 322 322 321 319 317 316 314 313 312 312 312 311 311 311 310 310 309 308 308 307 307 306 306 305 305 304 304 304 304 303 303
22 17 11 347 341 345 103 273 286 308 1 34 46 51 58 37 8 349 339 332 330 331 329 324 319 318 318 320 318 316 316 318 323 326 330 329 327 326 324 322 320 319 319 320 321 321 320 320 320 320 320 321 321 321 321 320 319 318 316 315 313 312 312 312 312 312 311 311 311 310 309 309 308 307 307 306 306 305 304 304 304 303 303 303 302 302
14 3 9 356 348 344 341 315 314 332 8 26 23 12 1 3 8 353 333 326 327 328 327 322 314 307 304 305 307 312 322 327 327 326 325 324 323 323 321 320 318 318 318 318 318 318 318 317 318 318 318 318 318 318 318 317 315 314 313 312 312 312 312 312 312 312 311 311 310 310 309 308 308 307 306 306 305 304 303 303 303 303 302 302 302 302
3 357 10 10 4 355 348 347 350 359 15 30 23 355 325 312 304 300 304 309 314 318 321 319 313 303 288 279 286 307 329 329 326 323 321 319 318 318 318 316 315 314 316 316 314 313 314 314 315 315 315 315 314 314 313 312 311 311 311 311 311 312 312 312 312 312 311 311 310 310 309 308 307 307 306 305 304 304 303 303 303 303 303 303 302 302
353 359 20 15 6 356 354 4 7 6 1 13 328 273 275 277 287 303 313 310 308 309 310 309 307 302 288 275 270 303 334 334 329 323 319 315 312 311 311 309 309 309 309 309 306 305 307 310 311 311 311 311 310 310 309 308 309 309 310 311 311 312 312 312 312 312 311 311 311 310 309 308 307 306 306 305 304 304 304 304 303 303 303 303 302 302
5 25 36 18 357 340 337 355 356 323 279 252 243 247 265 286 310 325 330 322 317 314 313 307 301 294 281 275 260 254 347 344 334 324 318 312 307 303 300 302 302 302 303 303 301 301 303 305 305 304 305 305 305 305 305 307 309 310 310 311 311 312 312 312 312 312 312 311 311 310 309 308 307 307 306 306 305 305 304 304 303 303 302 302 301 300
95 79 72 30 323 301 285 268 250 253 255 251 248 260 303 313 319 323 326 317 316 319 323 321 317 308 285 269 246 229 359 347 333 322 316 312 307 302 295 298 300 301 301 300 299 299 301 300 299 297 299 301 303 305 306 308 310 310 311 311 311 311 311 311 311 311 311 311 311 310 309 309 308 307 307 306 306 305 304 304 303 302 301 300 299 299
119 108 120 150 259 270 268 257 241 239 247 254 253 255 276 292 298 301 304 306 311 317 322 326 325 320 312 303 280 261 1 344 330 318 312 309 306 302 293 294 297 300 301 300 299 299 300 300 300 299 298 302 305 307 308 309 309 310 310 310 311 311 311 311 311 311 311 311 311 310 309 309 308 308 307 307 306 305 304 303 302 301 300 299 298 297
150 155 151 176 231 254 261 263 256 248 250 260 264 265 263 260 265 270 276 287 303 312 316 317 314 310 311 311 310 319 354 340 327 317 312 306 303 301 294 290 292 296 299 300 299 298 299 297 299 300 301 305 307 308 308 308 309 309 309 310 310 310 310 311 310 310 310 310 310 310 309 309 308 308 308 307 306 305 304 303 302 300 299 298 297 296
198 194 176 196 224 243 254 251 247 246 251 259 273 289 297 285 274 264 258 265 281 297 307 307 303 300 301 299 305 319 345 334 322 315 310 306 305 304 302 298 297 298 300 301 300 299 297 294 297 300 303 306 307 307 307 307 308 309 309 309 310 310 310 310 309 309 309 309 309 309 309 309 308 308 308 307 306 305 304 303 302 300 299 298 297 296
199 215 207 204 209 231 257 249 240 237 242 255 272 287 291 285 276 266 259 265 272 281 290 295 297 299 300 300 306 317 333 328 319 310 306 303 303 303 304 305 305 304 303 300 299 297 296 295 297 301 304 305 305 306 306 306 307 308 309 309 309 309 309 308 308 308 308 308 308 308 308 308 308 308 307 307 306 305 304 303 302 301 300 299 298 298
190 235 227 199 184 194 251 248 246 250 260 275 284 288 283 282 282 281 280 284 287 290 293 295 298 301 304 306 309 314 324 323 317 310 304 302 301 302 306 308 307 305 303 300 298 296 296 296 297 298 301 303 303 304 305 306 306 307 307 308 308 307 307 308 308 308 308 308 308 308 308 308 308 308 307 306 306 305 304 303 303 302 301 300 300 299
177 238 234 204 192 202 242 253 261 268 277 284 283 280 284 291 296 299 300 301 301 300 300 299 300 302 303 302 303 305 312 308 305 304 305 303 301 303 308 310 308 305 302 301 301 301 299 298 296 296 298 301 302 303 304 304 305 306 306 306 306 307 307 307 307 308 308 308 309 309 308 308 308 307 307 306 306 305 305 304 303 303 302 301 301 300
185 224 227 210 208 218 243 259 266 269 271 258 251 252 260 269 279 287 292 294 296 298 299 297 297 296 295 293 293 294 291 275 275 290 300 299 300 304 314 316 311 305 300 303 305 306 303 299 295 294 296 298 300 300 301 302 303 304 305 305 306 306 307 307 308 308 308 308 308 308 308 307 307 307 306 306 306 305 305 304 304 303 303 302 301 301
204 223 226 220 221 227 240 249 256 257 248 232 231 235 238 242 249 256 261 273 286 295 300 301 300 298 293 292 290 286 277 247 222 265 293 293 297 304 316 319 312 306 302 304 306 306 303 298 294 291 290 294 296 297 299 300 302 303 304 305 305 306 307 307 307 308 308 308 307 307 307 307 306 306 306 306 305 305 305 305 304 304 303 303 302 301
215 227 235 250 276 296 307 309 311 310 301 277 263 259 256 265 274 283 286 293 304 309 310 309 308 305 302 302 299 291 279 234 183 201 283 291 297 303 311 316 311 306 303 305 305 303 300 296 292 289 286 289 291 294 296 298 300 302 303 304 305 306 306 306 307 307 306 306 306 306 306 306 306 305 305 305 305 305 305 305 305 304 304 304 303 302
4 353 347 346 346 347 349 348 345 342 340 335 324 308 304 312 324 335 339 332 327 323 319 313 309 306 305 305 303 299 296 279 236 220 268 293 301 305 309 313 310 306 305 306 306 305 300 296 294 290 285 284 287 290 293 296 299 301 303 304 304 305 305 305 305 305 305 305 305 305 304 304 305 305 305 305 305 305 305 305 305 305 305 304 304 303
11 7 5 3 2 2 2 360 356 351 348 346 346 350 1 4 3 356 344 337 332 328 321 314 310 308 309 308 305 305 307 303 288 247 258 301 304 306 310 315 314 310 307 307 306 305 300 297 294 291 285 280 281 286 290 294 298 301 302 303 303 303 303 303 303 303 303 303 303 303 303 304 304 304 304 304 305 305 305 305 305 305 305 305 304 303
15 12 11 10 10 11 11 8 4 360 357 355 358 3 14 18 13 1 342 337 336 332 321 314 311 311 313 312 310 307 307 302 294 281 318 312 306 304 311 316 317 314 311 308 304 301 296 290 286 282 278 275 275 281 287 293 297 300 300 300 300 300 300 301 301 302 302 302 303 303 303 303 303 304 304 304 304 304 304 305 305 305 306 305 304 301
9 7 7 7 8 9 9 6 4 2 3 3 7 12 21 28 24 1 336 339 341 337 323 316 313 312 312 310 308 305 300 288 272 274 334 319 307 304 313 318 319 318 317 311 306 300 289 277 270 267 270 275 278 282 286 293 296 296 296 296 297 297 298 299 300 301 301 302 302 303 303 303 303 303 303 303 303 303 304 304 305 305 305 304 301 297
354 355 355 355 356 357 357 354 355 358 2 5 9 13 19 30 34 3 341 350 350 342 327 320 316 315 314 312 310 306 296 281 268 288 335 322 313 310 318 319 320 322 324 319 314 309 301 283 265 261 276 292 296 296 292 293 292 290 290 292 293 294 296 297 299 300 301 302 302 302 303 303 303 303 302 303 303 303 303 304 304 304 303 300 297 294
336 340 337 334 334 336 338 338 342 348 354 358 1 3 5 12 16 2 351 358 353 341 326 319 316 315 316 315 312 308 301 298 310 324 333 320 313 312 320 318 318 320 326 323 319 315 311 308 302 297 301 304 303 300 296 294 291 289 287 289 290 292 294 297 299 300 301 301 302 302 302 302 302 302 302 302 302 302 302 303 304 303 301 298 295 292
328 330 327 320 318 321 328 334 337 340 342 344 343 340 339 341 340 335 335 339 334 323 313 310 308 308 307 302 298 296 297 304 319 328 328 317 308 308 315 312 312 313 316 314 308 306 306 308 311 313 311 307 303 299 297 295 293 291 291 291 291 292 295 298 299 300 300 300 300 300 301 301 301 301 301 301 301 301 301 302 302 302 299 296 294 292
330 329 323 322 322 324 327 330 331 330 326 321 314 309 311 313 312 305 288 269 260 266 279 293 297 298 296 290 285 284 288 295 309 318 321 315 308 305 309 308 308 308 308 303 294 289 288 296 303 307 307 304 302 299 298 296 294 292 292 293 293 294 296 298 298 298 297 298 298 298 299 299 300 300 300 300 300 300 300 300 300 300 298 296 295 294
333 330 325 325 324 325 322 322 320 317 311 301 292 285 280 279 281 280 271 255 239 231 238 261 279 288 292 291 289 287 287 290 301 310 317 313 305 301 304 306 306 306 307 303 298 291 284 289 296 302 303 302 300 298 297 296 294 292 290 291 292 293 295 296 295 294 293 294 294 295 296 297 297 297 298 298 298 299 299 299 299 299 299 298 297 297
332 328 321 321 319 317 314 312 308 302 294 289 284 280 272 266 263 261 258 249 237 227 222 230 244 261 276 285 290 292 291 292 300 305 308 303 299 298 301 301 303 304 304 302 301 299 294 293 296 300 302 303 301 298 295 293 293 292 290 290 290 290 291 292 291 291 291 291 290 290 290 291 292 293 294 295 296 297 298 299 299 299 299 298 296 295
330 324 315 310 308 307 304 303 299 292 286 284 283 279 273 269 265 261 256 249 244 241 239 236 237 241 249 263 275 282 286 288 293 296 297 294 293 294 295 295 298 300 300 299 299 298 297 296 297 298 300 302 302 302 300 297 296 296 296 294 292 291 289 288 287 287 288 289 289 289 289 289 289 289 290 293 295 296 297 298 299 298 298 296 294 291
326 316 306 298 296 301 308 310 307 298 292 295 291 284 277 273 269 266 262 255 253 254 257 256 252 248 247 252 259 267 275 282 286 289 289 288 287 287 287 288 291 293 293 294 295 297 298 298 298 299 298 298 300 304 307 308 306 303 299 298 296 294 292 290 289 288 288 289 290 290 291 290 290 289 290 293 295 296 297 297 296 296 295 293 292 290
321 310 302 294 298 308 318 318 315 311 307 305 297 286 276 269 265 264 265 263 262 261 263 262 261 258 256 259 261 265 271 276 280 281 282 282 281 280 280 282 284 284 283 285 289 292 295 296 299 300 299 297 296 298 303 307 307 305 301 298 296 295 294 294 293 292 292 292 292 292 292 291 291 290 290 291 292 293 292 291 291 291 292 292 291 290
313 312 313 314 315 317 318 316 314 312 309 301 294 286 278 276 275 275 275 274 271 268 264 263 264 263 259 261 263 266 268 270 272 273 275 274 273 273 273 277 278 279 278 278 280 283 286 288 291 294 298 299 299 299 301 302 302 302 303 301 298 294 293 295 296 295 294 293 292 293 292 291 289 287 286 286 287 287 288 289 289 291 293 293 292 290
313 314 316 321 320 314 310 309 307 303 299 295 295 296 296 296 295 293 289 284 280 274 265 260 260 261 259 260 261 263 265 266 267 268 268 266 264 263 265 269 273 277 278 276 275 276 277 280 282 285 289 292 296 298 300 299 300 302 305 305 303 301 300 300 298 295 293 291 291 292 293 291 290 288 288 288 288 288 289 291 291 291 291 291 291 291
320 315 308 312 310 305 303 301 298 295 295 299 302 304 304 305 305 303 302 299 295 289 285 278 274 271 266 261 259 259 260 261 263 263 263 261 260 259 260 263 268 272 276 276 275 274 274 277 280 283 285 287 289 291 292 294 297 300 302 301 299 298 300 298 296 294 293 292 291 292 294 294 294 293 292 291 289 287 286 286 287 288 288 286 285 286
314 309 302 302 301 301 300 301 302 302 303 306 307 306 305 307 310 313 316 315 312 308 308 307 304 301 296 287 274 265 260 260 260 260 260 258 256 255 256 259 262 266 271 274 274 273 272 274 276 280 282 285 288 290 291 292 294 296 296 295 296 297 297 294 292 292 295 295 294 294 294 295 295 294 293 291 288 285 283 282 283 284 285 283 281 278
297 294 291 291 292 295 300 306 311 313 316 316 314 310 308 309 312 315 316 314 313 312 313 313 313 312 310 307 301 290 275 262 257 255 256 254 253 252 253 255 258 262 267 272 275 274 273 272 272 274 277 281 284 286 289 292 293 293 291 293 297 300 300 299 299 299 296 295 294 294 294 293 292 291 290 289 288 287 285 283 282 281 281 281 280 277
281 284 289 295 300 305 311 317 320 321 321 318 314 311 309 309 311 312 313 310 309 310 312 312 311 310 308 307 306 304 298 283 267 258 255 254 252 251 253 254 255 257 259 264 271 276 279 277 274 273 276 279 280 282 285 288 291 292 291 292 292 291 289 294 299 301 298 295 293 291 291 291 291 290 290 288 287 285 284 282 280 278 277 276 275 274
291 301 310 315 320 324 326 324 322 320 319 316 313 310 307 308 311 312 310 308 308 309 310 312 312 311 308 306 306 307 306 301 292 279 267 260 258 257 257 257 258 258 258 259 263 269 277 279 280 279 279 277 276 277 281 285 288 289 289 290 289 285 282 287 292 295 295 295 293 292 291 291 292 292 290 288 286 284 283 282 282 280 278 276 274 273
317 321 322 323 325 325 322 320 318 317 316 313 311 308 305 307 307 306 305 305 306 308 308 309 309 306 304 304 306 307 308 306 303 298 290 277 267 261 258 257 258 260 261 261 261 263 265 271 277 282 285 282 278 275 275 280 284 287 288 289 289 288 286 287 288 289 291 292 292 292 292 292 292 290 289 287 286 285 283 282 281 281 280 279 277 274
326 324 320 319 318 317 315 315 315 315 314 312 309 308 307 308 308 307 305 306 307 307 306 305 302 298 296 299 302 305 305 306 305 304 302 295 285 275 266 261 257 256 257 260 261 261 261 264 268 274 280 282 282 280 278 279 280 283 286 288 289 289 287 287 287 287 287 288 290 292 295 295 293 290 287 287 286 285 283 281 280 279 278 278 277 275
323 319 316 316 316 316 315 315 314 314 313 311 309 308 309 312 315 316 311 310 309 307 306 304 300 297 294 295 296 298 300 301 302 302 302 300 296 289 281 275 268 263 260 260 261 261 262 261 261 262 266 271 276 280 282 281 280 280 282 285 287 287 286 286 286 287 287 286 287 289 292 293 291 290 289 288 286 284 282 282 280 278 277 277 276 276
319 315 312 314 316 318 316 316 316 316 315 314 313 312 312 312 315 315 311 309 307 304 303 301 300 299 297 297 297 297 297 297 298 299 300 301 301 300 297 293 289 284 279 272 268 266 265 261 255 251 250 256 264 272 278 279 278 277 278 281 282 284 284 286 287 288 288 287 287 288 288 286 285 286 288 287 286 284 283 282 281 280 278 277 276 275
320 314 312 314 316 316 315 316 317 316 315 316 315 315 314 313 311 309 305 303 302 300 298 298 299 298 298 298 298 299 299 299 299 299 300 302 303 304 304 303 302 300 297 291 287 283 281 273 260 249 244 248 255 265 275 279 281 281 280 280 282 284 286 288 289 291 291 291 290 290 288 286 284 283 283 284 284 284 284 282 280 279 278 278 277 277
318 315 314 315 314 313 312 312 313 313 313 314 314 314 313 311 309 306 304 303 302 300 298 297 297 297 297 297 298 299 299 299 300 301 302 303 305 306 306 306 307 307 306 304 303 302 301 300 293 281 266 261 263 268 277 285 290 292 291 289 289 289 290 291 292 293 293 293 293 292 291 289 287 285 284 284 286 287 287 284 282 280 280 281 281 281